Find Starlink 11147

NORAD ID: 60301 Int'l Des: 2024-133 Owner: SPXS Country: US Constellation: starlink operational
LEOCIRCULAR

当前视图

正在加载3D地球...

About Starlink 11147

Starlink 11147 (NORAD 60301) is a starlink constellation satellite (v2 mini d2c) launched Jul 28, 2024 by SPXS of US. It operates in LEO, CIRCULAR orbit with a mass of 960.00 kg.

关于 Starlink 11147

正在加载描述...

即将过境

Passes for default location (London). Set your location on the main map for personalized predictions.

高度历史

Loading altitude history...

两行轨道根数

1 60301C 24133A 26173.82548611 -.00043121 00000+0 -35531-3 0 1733
2 60301 53.1571 348.1618 0001075 82.5156 288.0208 15.69723865 16
Epoch: Jun 22, 2026 • Age: 12 hours

当前状态

高度 360.5 km
速度 7.69 km/s
星下点 1.37°N, 44.82°W
发射日期 Jul 28, 2024
运行时间 1.9 years
类型 internet

技术详情

分类 Payload
质量 960.00 kg
干质量 910.00 kg
总质量 960.00 kg
长度 0.30 m
直径 4.10 m
跨度 29.00 m
形状 Box + pan
制造商 SPXS
平台类型 Starlink V2MD
阶段状态 In Orbit
所有者/国家 SPXS/US

Most Searched